ZACUBE-1 (TSHEPISOSAT)

Last updated on Thu Nov 21 2024 00:03:02 GMT+0000 (Coordinated Universal Time)

1 39417U 13066B 24325.31136446 .00009350 00000+0 88954-3 0 9997 2 39417 97.7559 278.2724 0048114 6.0052 354.1733 14.92766914594846
UTC large
Height (km)
Speed (km/s)
/
Latitude / Longitude
Inclination (degrees)
Orbital Period (minutes)
Azimuth
Elevation
Range (km)
Doppler Factor

Next 0 passes for location: London (51.5072 / 0.1276)

Sorry there are no passes over London.